Time,TemperatureF,DewpointF,PressureIn,WindDirection,WindDirectionDegrees,WindSpeedMPH,WindSpeedGustMPH,Humidity,HourlyPrecipIn,Conditions,Clouds,dailyrainin,SoftwareType,DateUTC
2013-01-20 00:12:00,33.1,26.0,29.84,South,176,0.0,3.0,74,0.00,,,0.00,weatherlink.com 1.10,2013-01-20 05:12:00,
2013-01-20 00:27:00,34.0,26.0,29.83,WSW,256,2.0,4.0,71,0.00,,,0.00,weatherlink.com 1.10,2013-01-20 05:27:00,
2013-01-20 00:42:00,34.1,26.0,29.82,West,259,0.0,3.0,71,0.00,,,0.00,weatherlink.com 1.10,2013-01-20 05:42:00,
2013-01-20 00:57:00,33.6,25.0,29.82,West,260,0.0,1.0,72,0.00,,,0.00,weatherlink.com 1.10,2013-01-20 05:57:00,
2013-01-20 01:12:00,33.6,26.0,29.82,North,359,0.0,1.0,73,0.00,,,0.00,weatherlink.com 1.10,2013-01-20 06:12:00,
2013-01-20 01:27:00,33.4,27.0,29.83,NNE,23,0.0,0.0,78,0.00,,,0.00,weatherlink.com 1.10,2013-01-20 06:27:00,
2013-01-20 01:42:00,33.6,27.0,29.82,ENE,63,0.0,1.0,76,0.00,,,0.00,weatherlink.com 1.10,2013-01-20 06:42:00,
2013-01-20 01:57:00,33.6,27.0,29.80,ENE,62,0.0,0.0,78,0.00,,,0.00,weatherlink.com 1.10,2013-01-20 06:57:00,
2013-01-20 02:12:00,34.3,28.0,29.78,SSE,152,1.0,4.0,77,0.00,,,0.00,weatherlink.com 1.10,2013-01-20 07:12:00,
2013-01-20 02:27:00,35.5,28.0,29.78,SE,136,4.0,5.0,75,0.00,,,0.00,weatherlink.com 1.10,2013-01-20 07:27:00,
2013-01-20 02:42:00,35.6,29.0,29.78,WSW,249,1.0,3.0,76,0.00,,,0.00,weatherlink.com 1.10,2013-01-20 07:42:00,
2013-01-20 02:57:00,34.9,29.0,29.77,NNE,24,0.0,1.0,78,0.00,,,0.00,weatherlink.com 1.10,2013-01-20 07:57:00,
2013-01-20 03:12:00,33.8,28.0,29.75,NNE,24,0.0,0.0,80,0.00,,,0.00,weatherlink.com 1.10,2013-01-20 08:12:00,
2013-01-20 03:27:00,33.4,28.0,29.74,NW,319,0.0,0.0,81,0.00,,,0.00,weatherlink.com 1.10,2013-01-20 08:27:00,
2013-01-20 03:42:00,33.6,28.0,29.74,West,274,0.0,5.0,81,0.00,,,0.00,weatherlink.com 1.10,2013-01-20 08:42:00,
2013-01-20 03:57:00,33.2,28.0,29.73,SSW,194,0.0,1.0,81,0.00,,,0.00,weatherlink.com 1.10,2013-01-20 08:57:00,
2013-01-20 04:12:00,32.3,28.0,29.72,SSW,193,0.0,1.0,83,0.00,,,0.00,weatherlink.com 1.10,2013-01-20 09:12:00,
2013-01-20 04:27:00,31.6,27.0,29.71,NW,325,0.0,2.0,84,0.00,,,0.00,weatherlink.com 1.10,2013-01-20 09:27:00,
2013-01-20 04:42:00,31.1,27.0,29.70,SSW,205,0.0,2.0,85,0.00,,,0.00,weatherlink.com 1.10,2013-01-20 09:42:00,
2013-01-20 04:57:00,31.1,27.0,29.69,SSE,150,0.0,1.0,86,0.00,,,0.00,weatherlink.com 1.10,2013-01-20 09:57:00,
2013-01-20 05:13:00,31.9,28.0,29.67,SSW,212,4.0,4.0,85,0.00,,,0.00,weatherlink.com 1.10,2013-01-20 10:13:00,
2013-01-20 05:28:00,32.7,28.0,29.66,WSW,238,1.0,5.0,84,0.00,,,0.00,weatherlink.com 1.10,2013-01-20 10:28:00,
2013-01-20 05:43:00,33.0,28.0,29.65,SW,218,0.0,5.0,82,0.00,,,0.00,weatherlink.com 1.10,2013-01-20 10:43:00,
2013-01-20 05:58:00,32.9,28.0,29.65,SW,225,0.0,5.0,82,0.00,,,0.00,weatherlink.com 1.10,2013-01-20 10:58:00,
2013-01-20 06:13:00,32.2,28.0,29.63,SW,219,0.0,1.0,83,0.00,,,0.00,weatherlink.com 1.10,2013-01-20 11:13:00,
2013-01-20 06:28:00,32.0,27.0,29.63,West,269,0.0,2.0,83,0.00,,,0.00,weatherlink.com 1.10,2013-01-20 11:28:00,
2013-01-20 06:43:00,31.2,27.0,29.62,SW,234,0.0,1.0,85,0.00,,,0.00,weatherlink.com 1.10,2013-01-20 11:43:00,
2013-01-20 06:58:00,31.0,27.0,29.61,WSW,250,0.0,1.0,85,0.00,,,0.00,weatherlink.com 1.10,2013-01-20 11:58:00,
2013-01-20 07:13:00,31.0,27.0,29.60,WSW,253,0.0,2.0,85,0.00,,,0.00,weatherlink.com 1.10,2013-01-20 12:13:00,
2013-01-20 07:28:00,31.3,27.0,29.59,South,170,0.0,3.0,83,0.00,,,0.00,weatherlink.com 1.10,2013-01-20 12:28:00,
2013-01-20 07:43:00,32.2,27.0,29.59,West,266,0.0,5.0,82,0.00,,,0.00,weatherlink.com 1.10,2013-01-20 12:43:00,
2013-01-20 07:58:00,31.7,27.0,29.58,SW,229,0.0,1.0,83,0.00,,,0.00,weatherlink.com 1.10,2013-01-20 12:58:00,
2013-01-20 08:13:00,31.5,27.0,29.58,WSW,243,0.0,1.0,84,0.00,,,0.00,weatherlink.com 1.10,2013-01-20 13:13:00,
2013-01-20 08:28:00,32.8,28.0,29.58,WSW,239,0.0,1.0,82,0.00,,,0.00,weatherlink.com 1.10,2013-01-20 13:28:00,
2013-01-20 08:43:00,35.1,29.0,29.58,WSW,255,0.0,1.0,78,0.00,,,0.00,weatherlink.com 1.10,2013-01-20 13:43:00,
2013-01-20 08:58:00,38.8,30.0,29.59,WNW,289,0.0,12.0,70,0.00,,,0.00,weatherlink.com 1.10,2013-01-20 13:58:00,
2013-01-20 09:13:00,42.3,30.0,29.57,WSW,256,4.0,18.0,61,0.00,,,0.00,weatherlink.com 1.10,2013-01-20 14:13:00,
2013-01-20 09:28:00,43.7,29.0,29.56,WSW,252,2.0,17.0,57,0.00,,,0.00,weatherlink.com 1.10,2013-01-20 14:28:00,
2013-01-20 09:43:00,44.8,29.0,29.55,WSW,256,10.0,12.0,55,0.00,,,0.00,weatherlink.com 1.10,2013-01-20 14:43:00,
2013-01-20 09:58:00,46.0,29.0,29.54,WSW,257,6.0,12.0,52,0.01,,,0.01,weatherlink.com 1.10,2013-01-20 14:58:00,
2013-01-20 10:13:00,47.1,30.0,29.55,West,276,5.0,12.0,51,0.02,,,0.02,weatherlink.com 1.10,2013-01-20 15:13:00,
2013-01-20 10:28:00,47.7,29.0,29.54,West,264,9.0,14.0,48,0.03,,,0.03,weatherlink.com 1.10,2013-01-20 15:28:00,
2013-01-20 10:43:00,47.4,28.0,29.53,SE,134,4.0,13.0,48,0.04,,,0.04,weatherlink.com 1.10,2013-01-20 15:43:00,
2013-01-20 10:58:00,47.9,29.0,29.53,South,183,5.0,9.0,48,0.04,,,0.05,weatherlink.com 1.10,2013-01-20 15:58:00,
2013-01-20 11:14:00,48.1,29.0,29.52,SSW,203,4.0,14.0,47,0.04,,,0.06,weatherlink.com 1.10,2013-01-20 16:14:00,
2013-01-20 11:29:00,46.1,29.0,29.52,SSW,205,1.0,24.0,51,0.04,,,0.07,weatherlink.com 1.10,2013-01-20 16:29:00,
2013-01-20 11:44:00,45.0,29.0,29.52,SSW,206,3.0,14.0,53,0.03,,,0.07,weatherlink.com 1.10,2013-01-20 16:44:00,
2013-01-20 11:59:00,44.4,29.0,29.54,SW,231,2.0,6.0,56,0.02,,,0.07,weatherlink.com 1.10,2013-01-20 16:59:00,
2013-01-20 12:14:00,43.9,29.0,29.55,NNW,332,2.0,16.0,57,0.01,,,0.07,weatherlink.com 1.10,2013-01-20 17:14:00,
2013-01-20 12:29:00,42.6,31.0,29.56,SW,217,5.0,9.0,63,0.01,,,0.08,weatherlink.com 1.10,2013-01-20 17:29:00,
2013-01-20 12:44:00,41.8,31.0,29.57,SE,142,1.0,7.0,66,0.01,,,0.08,weatherlink.com 1.10,2013-01-20 17:44:00,
2013-01-20 12:59:00,41.3,28.0,29.57,South,188,1.0,14.0,60,0.01,,,0.08,weatherlink.com 1.10,2013-01-20 17:59:00,
2013-01-20 13:14:00,41.2,26.0,29.57,SSE,156,6.0,14.0,54,0.01,,,0.08,weatherlink.com 1.10,2013-01-20 18:14:00,
2013-01-20 13:29:00,41.4,25.0,29.58,SE,142,3.0,12.0,53,0.00,,,0.08,weatherlink.com 1.10,2013-01-20 18:29:00,
2013-01-20 13:44:00,41.3,23.0,29.58,SW,226,5.0,12.0,48,0.00,,,0.08,weatherlink.com 1.10,2013-01-20 18:44:00,
2013-01-20 13:59:00,41.5,20.0,29.58,NNE,23,3.0,11.0,42,0.01,,,0.09,weatherlink.com 1.10,2013-01-20 18:59:00,
2013-01-20 14:14:00,42.7,19.0,29.58,NE,51,0.0,14.0,39,0.01,,,0.09,weatherlink.com 1.10,2013-01-20 19:14:00,
2013-01-20 14:29:00,43.3,14.0,29.59,WNW,302,5.0,10.0,31,0.01,,,0.09,weatherlink.com 1.10,2013-01-20 19:29:00,
2013-01-20 14:44:00,43.3,14.0,29.60,SW,219,3.0,18.0,31,0.01,,,0.09,weatherlink.com 1.10,2013-01-20 19:44:00,
2013-01-20 14:59:00,43.3,14.0,29.62,WNW,287,3.0,16.0,31,0.00,,,0.09,weatherlink.com 1.10,2013-01-20 19:59:00,
2013-01-20 15:14:00,42.8,15.0,29.63,SE,131,2.0,7.0,33,0.00,,,0.09,weatherlink.com 1.10,2013-01-20 20:14:00,
2013-01-20 15:29:00,42.0,17.0,29.63,WSW,238,3.0,10.0,36,0.00,,,0.09,weatherlink.com 1.10,2013-01-20 20:29:00,
2013-01-20 15:45:00,41.0,17.0,29.65,SW,235,1.0,11.0,38,0.00,,,0.09,weatherlink.com 1.10,2013-01-20 20:45:00,
2013-01-20 15:59:00,39.1,17.0,29.67,NNW,340,1.0,12.0,40,0.00,,,0.09,weatherlink.com 1.10,2013-01-20 20:59:00,
2013-01-20 16:14:00,37.6,16.0,29.69,NW,314,4.0,11.0,41,0.00,,,0.09,weatherlink.com 1.10,2013-01-20 21:14:00,
2013-01-20 16:29:00,36.3,15.0,29.71,ESE,107,4.0,11.0,42,0.00,,,0.09,weatherlink.com 1.10,2013-01-20 21:29:00,
2013-01-20 16:44:00,34.9,15.0,29.72,SW,235,1.0,12.0,44,0.00,,,0.09,weatherlink.com 1.10,2013-01-20 21:44:00,
2013-01-20 16:59:00,34.0,15.0,29.72,SSW,210,4.0,14.0,46,0.00,,,0.09,weatherlink.com 1.10,2013-01-20 21:59:00,
2013-01-20 17:14:00,33.2,15.0,29.74,NNE,22,4.0,8.0,47,0.00,,,0.09,weatherlink.com 1.10,2013-01-20 22:14:00,
2013-01-20 17:29:00,32.7,14.0,29.75,NW,316,2.0,9.0,47,0.00,,,0.09,weatherlink.com 1.10,2013-01-20 22:29:00,
2013-01-20 17:44:00,31.9,15.0,29.76,ENE,60,2.0,7.0,49,0.00,,,0.09,weatherlink.com 1.10,2013-01-20 22:44:00,
2013-01-20 17:59:00,31.4,14.0,29.77,West,262,1.0,10.0,48,0.00,,,0.09,weatherlink.com 1.10,2013-01-20 22:59:00,
2013-01-20 18:14:00,30.8,13.0,29.78,NW,315,4.0,6.0,48,0.00,,,0.09,weatherlink.com 1.10,2013-01-20 23:14:00,
2013-01-20 18:29:00,30.5,13.0,29.79,NNW,334,4.0,15.0,49,0.00,,,0.09,weatherlink.com 1.10,2013-01-20 23:29:00,
2013-01-20 18:44:00,29.9,12.0,29.79,West,274,1.0,8.0,47,0.00,,,0.09,weatherlink.com 1.10,2013-01-20 23:44:00,
2013-01-20 18:59:00,29.2,12.0,29.80,ESE,118,2.0,15.0,48,0.00,,,0.09,weatherlink.com 1.10,2013-01-20 23:59:00,
2013-01-20 19:14:00,28.8,11.0,29.80,ENE,67,1.0,6.0,48,0.00,,,0.09,weatherlink.com 1.10,2013-01-21 00:14:00,
2013-01-20 19:30:00,28.5,11.0,29.80,NNE,32,4.0,15.0,49,0.00,,,0.09,weatherlink.com 1.10,2013-01-21 00:30:00,
2013-01-20 19:44:00,28.2,11.0,29.82,SW,219,3.0,10.0,48,0.00,,,0.09,weatherlink.com 1.10,2013-01-21 00:44:00,
2013-01-20 19:59:00,27.8,11.0,29.82,West,280,1.0,6.0,50,0.00,,,0.09,weatherlink.com 1.10,2013-01-21 00:59:00,
2013-01-20 20:14:00,27.5,11.0,29.83,NW,311,1.0,5.0,51,0.00,,,0.09,weatherlink.com 1.10,2013-01-21 01:14:00,
2013-01-20 20:29:00,27.4,11.0,29.83,WNW,285,2.0,6.0,51,0.00,,,0.09,weatherlink.com 1.10,2013-01-21 01:29:00,
2013-01-20 20:44:00,27.4,11.0,29.84,WSW,255,2.0,3.0,51,0.00,,,0.09,weatherlink.com 1.10,2013-01-21 01:44:00,
2013-01-20 20:59:00,27.6,11.0,29.85,West,278,3.0,6.0,51,0.00,,,0.09,weatherlink.com 1.10,2013-01-21 01:59:00,
2013-01-20 21:14:00,27.6,11.0,29.85,WNW,284,3.0,7.0,50,0.00,,,0.09,weatherlink.com 1.10,2013-01-21 02:14:00,
2013-01-20 21:29:00,27.2,11.0,29.87,North,11,3.0,6.0,50,0.00,,,0.09,weatherlink.com 1.10,2013-01-21 02:29:00,
2013-01-20 21:44:00,26.6,10.0,29.88,NW,323,0.0,7.0,50,0.00,,,0.09,weatherlink.com 1.10,2013-01-21 02:44:00,
2013-01-20 21:59:00,26.0,9.0,29.89,NE,37,1.0,13.0,48,0.00,,,0.09,weatherlink.com 1.10,2013-01-21 02:59:00,
2013-01-20 22:15:00,25.6,9.0,29.89,WSW,250,3.0,15.0,50,0.00,,,0.09,weatherlink.com 1.10,2013-01-21 03:15:00,
2013-01-20 22:30:00,25.5,9.0,29.90,SW,235,2.0,8.0,50,0.00,,,0.09,weatherlink.com 1.10,2013-01-21 03:30:00,
2013-01-20 22:45:00,25.3,8.0,29.90,West,274,0.0,12.0,48,0.00,,,0.09,weatherlink.com 1.10,2013-01-21 03:45:00,
2013-01-20 23:00:00,25.0,8.0,29.90,NNW,344,5.0,9.0,49,0.00,,,0.09,weatherlink.com 1.10,2013-01-21 04:00:00,
2013-01-20 23:15:00,24.7,9.0,29.91,West,260,2.0,8.0,51,0.00,,,0.09,weatherlink.com 1.10,2013-01-21 04:15:00,
2013-01-20 23:30:00,24.8,9.0,29.91,NNW,342,3.0,9.0,51,0.00,,,0.09,weatherlink.com 1.10,2013-01-21 04:30:00,
2013-01-20 23:45:00,24.3,8.0,29.91,NNW,333,2.0,10.0,50,0.00,,,0.09,weatherlink.com 1.10,2013-01-21 04:45:00,